Weather History for K9L2 - January, 2014

Change the Weather History Date:

Thursday, January 23, 2014

  Actual Average (KEDW) Record (KEDW)
Temperature  
Mean Temperature 46 °F -  
Max Temperature 66 °F 58 °F 68 °F (1999)
Min Temperature 26 °F 32 °F 15 °F (2002)
Degree Days  
Heating Degree Days 19    
Moisture  
Dew Point 8 °F    
Average Humidity 23    
Maximum Humidity 39    
Minimum Humidity 10    
Precipitation  
Precipitation 0.00 in - - ()
Sea Level Pressure  
Sea Level Pressure 30.07 in    
Wind  
Wind Speed 5 mph (NE)    
Max Wind Speed 16 mph    
Max Gust Speed 26 mph    
Visibility 10 miles    
Events      
Averages and records for this station are not official NWS values.
T = Trace of Precipitation, MM = Missing Value Source: NWS Daily Summary

Daily Weather History Graph

Daily Weather History Graph

Search for Another Location

Airport or City:

Trip Planner

Search our weather history database for the weather conditions in past years. The results will help you decide how hot, cold, wet, or windy it might be!

Date:

Astronomy

Jan. 23, 2014 Rise Set
Actual Time 6:55 AM PST 5:11 PM PST
Civil Twilight 6:28 AM PST 5:38 PM PST
Nautical Twilight 5:58 AM PST 6:09 PM PST
Astronomical Twilight 5:27 AM PST 6:39 PM PST
Moon No Moon Rise 10:51 AM PST (1/23)
Length of Visible Light 11h 09m
Length of Day
10h 15m
Waning Gibbous, 54% of the Moon is Illuminated
Jan 23
Waning Gibbous
Jan 23
Last Quarter
Jan 30
New
Feb 6
First Quarter
Feb 14
Full

Hourly Weather History & Observations

Time (PST) Temp. Windchill Dew Point Humidity Pressure Visibility Wind Dir Wind Speed Gust Speed Precip Events Conditions
12:55 AM 32.0 °F 28.7 °F 6.1 °F 34% 29.95 in 10.0 mi WNW 3.5 mph - N/A   Clear
1:55 AM 28.9 °F - 5.0 °F 36% 29.97 in 10.0 mi Calm Calm - N/A   Clear
2:55 AM 28.0 °F 24.2 °F 5.0 °F 38% 29.95 in 10.0 mi North 3.5 mph - N/A   Clear
3:55 AM 28.9 °F - 3.0 °F 33% 29.96 in 10.0 mi Calm Calm - N/A   Clear
4:55 AM 26.1 °F 19.4 °F 3.9 °F 39% 30.00 in 10.0 mi NW 5.8 mph - N/A   Clear
5:55 AM 30.0 °F 23.2 °F 6.1 °F 36% 30.03 in 10.0 mi North 6.9 mph - N/A   Clear
6:55 AM 28.0 °F 21.7 °F 5.0 °F 38% 30.06 in 10.0 mi South 5.8 mph - N/A   Clear
7:55 AM 32.0 °F - 3.9 °F 31% 30.10 in 10.0 mi Calm Calm - N/A   Clear
9:55 AM 46.0 °F - 8.1 °F 21% 30.13 in 10.0 mi Calm Calm - N/A   Clear
10:55 AM 52.0 °F - 10.0 °F 19% 30.12 in 10.0 mi Calm Calm - N/A   Clear
11:55 AM 62.1 °F - 9.0 °F 12% 30.08 in 10.0 mi Calm Calm - N/A   Clear
12:55 PM 64.9 °F - 8.1 °F 11% 30.06 in 10.0 mi East 15.0 mph 26.5 mph N/A   Clear
1:55 PM 66.0 °F - 8.1 °F 10% 30.05 in 10.0 mi ENE 16.1 mph 23.0 mph N/A   Clear
2:55 PM 66.0 °F - 8.1 °F 10% 30.05 in 10.0 mi East 13.8 mph - N/A   Clear
3:55 PM 64.0 °F - 9.0 °F 12% 30.06 in 10.0 mi East 13.8 mph - N/A   Clear
4:55 PM 61.0 °F - 9.0 °F 13% 30.09 in 10.0 mi NE 15.0 mph 23.0 mph N/A   Clear
5:55 PM 57.0 °F - 10.9 °F 16% 30.12 in 10.0 mi NE 15.0 mph - N/A   Clear
6:55 PM 55.9 °F - 12.0 °F 18% 30.15 in 10.0 mi NE 13.8 mph - N/A   Clear
8:55 PM 55.9 °F - 14.0 °F 19% 30.18 in 10.0 mi NE 15.0 mph - N/A   Clear
9:55 PM 53.1 °F - 12.9 °F 20% 30.20 in 10.0 mi East 5.8 mph - N/A   Clear
10:55 PM 48.9 °F - 12.0 °F 23% 30.22 in 10.0 mi Calm Calm - N/A   Clear